QPF
0.01 0.01 0.01 0.00 0.01 0.01 0.01 0.01 0.01 0.00 0.00 0.00 0.00 0.00 0.00 0.00 0.00 0.00 0.00 0.00 0.01 0.01 0.01 0.01 0.01 0.01 0.01 0.01 0.01 0.00 0.00 0.00 0.00 0.00 0.01 0.01 0.01 0.01 0.01 0.02 0.01 0.01 0.01
0.00 0.00 0.01 0.01 0.00 0.01 0.01 0.01 0.02 0.00 0.00 0.00 0.00 0.00 0.00 0.00 0.00 0.00 0.00 0.00 0.01 0.01 0.01 0.00 0.01 0.00 0.00 0.00 0.00 0.00 0.00 0.00 0.01 0.01 0.02 0.01 0.01 0.01 0.01 0.01 0.01 0.01 0.01
0.00 0.00 0.01 0.01 0.01 0.01 0.01 0.01 0.02 0.00 0.00 0.00 0.00 0.00 0.00 0.00 0.00 0.00 0.00 0.00 0.00 0.01 0.01 0.00 0.00 0.00 0.00 0.00 0.00 0.00 0.00 0.01 0.01 0.01 0.02 0.01 0.01 0.01 0.00 0.00 0.00 0.00 0.00
0.00 0.00 0.00 0.01 0.01 0.01 0.01 0.01 0.01 0.01 0.00 0.00 0.00 0.00 0.00 0.00 0.00 0.00 0.00 0.00 0.00 0.00 0.00 0.00 0.00 0.00 0.00 0.00 0.00 0.00 0.01 0.01 0.02 0.01 0.01 0.01 0.01 0.01 0.00 0.00 0.00 0.00 0.00
0.01 0.00 0.01 0.01 0.01 0.01 0.01 0.01 0.01 0.01 0.00 0.00 0.00 0.00 0.00 0.00 0.00 0.00 0.00 0.00 0.00 0.00 0.00 0.00 0.00 0.00 0.00 0.00 0.00 0.01 0.01 0.02 0.02 0.01 0.00 0.01 0.02 0.01 0.00 0.00 0.00 0.00 0.00
0.01 0.01 0.01 0.01 0.01 0.01 0.01 0.01 0.01 0.01 0.00 0.00 0.00 0.00 0.00 0.00 0.00 0.00 0.00 0.00 0.00 0.00 0.00 0.00 0.00 0.00 0.00 0.00 0.01 0.01 0.03 0.04 0.02 0.01 0.01 0.01 0.01 0.01 0.01 0.01 0.00 0.00 0.00
0.04 0.03 0.02 0.01 0.01 0.01 0.01 0.01 0.01 0.00 0.00 0.00 0.00 0.00 0.00 0.00 0.00 0.00 0.00 0.00 0.00 0.01 0.01 0.00 0.00 0.00 0.00 0.00 0.01 0.01 0.03 0.05 0.03 0.02 0.01 0.01 0.02 0.01 0.01 0.01 0.00 0.00 0.01
0.07 0.06 0.05 0.03 0.02 0.02 0.03 0.02 0.01 0.01 0.00 0.00 0.00 0.00 0.00 0.00 0.00 0.00 0.00 0.01 0.01 0.01 0.01 0.01 0.00 0.00 0.00 0.00 0.01 0.02 0.03 0.05 0.03 0.04 0.04 0.03 0.02 0.02 0.03 0.03 0.01 0.01 0.01
0.07 0.08 0.09 0.07 0.06 0.05 0.05 0.04 0.03 0.02 0.01 0.01 0.01 0.01 0.00 0.00 0.01 0.01 0.01 0.01 0.01 0.01 0.01 0.01 0.01 0.00 0.00 0.01 0.01 0.01 0.03 0.05 0.05 0.06 0.04 0.05 0.03 0.02 0.03 0.03 0.01 0.01 0.01
0.07 0.11 0.16 0.20 0.16 0.10 0.09 0.10 0.07 0.06 0.04 0.03 0.03 0.02 0.02 0.01 0.01 0.01 0.01 0.01 0.01 0.01 0.01 0.01 0.01 0.01 0.01 0.01 0.01 0.01 0.02 0.03 0.02 0.03 0.05 0.05 0.03 0.04 0.05 0.03 0.02 0.02 0.01
0.07 0.09 0.20 0.25 0.19 0.13 0.13 0.15 0.13 0.13 0.10 0.07 0.05 0.04 0.04 0.03 0.03 0.02 0.01 0.02 0.02 0.02 0.02 0.02 0.01 0.01 0.01 0.01 0.01 0.01 0.01 0.01 0.01 0.02 0.04 0.03 0.04 0.07 0.07 0.05 0.03 0.02 0.01
0.05 0.07 0.14 0.20 0.16 0.13 0.13 0.13 0.18 0.19 0.17 0.11 0.07 0.05 0.05 0.06 0.06 0.04 0.03 0.03 0.03 0.02 0.02 0.02 0.02 0.01 0.01 0.01 0.01 0.01 0.00 0.01 0.01 0.02 0.02 0.02 0.05 0.09 0.11 0.07 0.04 0.03 0.02
0.07 0.09 0.11 0.13 0.12 0.14 0.17 0.16 0.16 0.16 0.13 0.11 0.09 0.07 0.08 0.08 0.08 0.06 0.06 0.04 0.03 0.03 0.03 0.04 0.03 0.03 0.02 0.02 0.01 0.00 0.00 0.01 0.01 0.01 0.01 0.02 0.05 0.10 0.12 0.10 0.06 0.04 0.04
0.07 0.08 0.10 0.11 0.13 0.15 0.20 0.20 0.16 0.11 0.08 0.08 0.07 0.05 0.06 0.08 0.08 0.08 0.10 0.07 0.07 0.07 0.08 0.07 0.07 0.05 0.04 0.02 0.01 0.01 0.01 0.01 0.01 0.02 0.02 0.02 0.04 0.08 0.11 0.11 0.08 0.06 0.05
0.05 0.05 0.06 0.08 0.11 0.16 0.20 0.20 0.19 0.14 0.10 0.07 0.07 0.06 0.06 0.08 0.09 0.08 0.08 0.11 0.09 0.08 0.08 0.09 0.08 0.07 0.06 0.05 0.03 0.02 0.02 0.01 0.01 0.02 0.02 0.02 0.03 0.06 0.10 0.11 0.10 0.08 0.08
0.03 0.04 0.06 0.07 0.08 0.11 0.17 0.18 0.16 0.14 0.11 0.09 0.09 0.08 0.06 0.07 0.07 0.07 0.08 0.10 0.11 0.10 0.10 0.10 0.10 0.09 0.08 0.08 0.05 0.04 0.04 0.04 0.03 0.02 0.02 0.03 0.03 0.04 0.08 0.12 0.14 0.12 0.12
0.02 0.03 0.03 0.05 0.06 0.08 0.10 0.14 0.16 0.13 0.12 0.11 0.10 0.09 0.09 0.09 0.08 0.08 0.08 0.09 0.10 0.11 0.10 0.10 0.10 0.09 0.07 0.07 0.07 0.07 0.06 0.06 0.05 0.04 0.03 0.04 0.04 0.04 0.06 0.09 0.12 0.13 0.14
0.03 0.02 0.03 0.05 0.07 0.10 0.10 0.11 0.12 0.13 0.13 0.13 0.11 0.08 0.08 0.07 0.06 0.06 0.07 0.09 0.10 0.10 0.10 0.08 0.08 0.07 0.08 0.07 0.08 0.07 0.07 0.07 0.05 0.05 0.04 0.04 0.05 0.05 0.05 0.07 0.09 0.11 0.14
0.04 0.03 0.04 0.05 0.07 0.08 0.09 0.09 0.10 0.11 0.11 0.12 0.11 0.08 0.08 0.09 0.09 0.08 0.08 0.10 0.09 0.09 0.10 0.08 0.08 0.08 0.09 0.09 0.08 0.07 0.07 0.06 0.05 0.04 0.04 0.05 0.06 0.05 0.06 0.08 0.09 0.10 0.12
0.04 0.05 0.06 0.05 0.05 0.06 0.07 0.09 0.10 0.11 0.09 0.09 0.09 0.09 0.09 0.09 0.09 0.10 0.12 0.12 0.10 0.09 0.09 0.08 0.07 0.07 0.08 0.08 0.07 0.07 0.06 0.05 0.04 0.04 0.05 0.05 0.06 0.06 0.07 0.08 0.10 0.11 0.13
0.03 0.04 0.05 0.05 0.06 0.07 0.07 0.09 0.08 0.07 0.07 0.08 0.07 0.07 0.07 0.08 0.08 0.10 0.10 0.11 0.12 0.12 0.11 0.10 0.09 0.08 0.07 0.07 0.07 0.07 0.06 0.04 0.04 0.03 0.04 0.05 0.05 0.07 0.08 0.09 0.11 0.13 0.11
0.02 0.03 0.03 0.04 0.05 0.06 0.06 0.05 0.04 0.04 0.04 0.07 0.07 0.07 0.07 0.07 0.07 0.09 0.09 0.10 0.10 0.10 0.11 0.10 0.10 0.10 0.08 0.07 0.08 0.08 0.06 0.04 0.04 0.03 0.03 0.03 0.04 0.05 0.06 0.08 0.10 0.12 0.12
0.02 0.02 0.02 0.03 0.05 0.05 0.04 0.04 0.04 0.05 0.05 0.06 0.07 0.08 0.08 0.06 0.06 0.06 0.06 0.06 0.08 0.08 0.08 0.07 0.07 0.09 0.11 0.10 0.12 0.13 0.09 0.06 0.05 0.04 0.03 0.03 0.04 0.05 0.05 0.06 0.08 0.09 0.11
0.01 0.02 0.02 0.02 0.04 0.06 0.04 0.04 0.04 0.05 0.05 0.04 0.04 0.04 0.06 0.05 0.05 0.05 0.05 0.05 0.05 0.05 0.05 0.05 0.05 0.06 0.08 0.09 0.10 0.11 0.10 0.09 0.09 0.07 0.04 0.04 0.03 0.04 0.05 0.05 0.06 0.08 0.12
0.01 0.01 0.01 0.01 0.02 0.04 0.04 0.03 0.03 0.02 0.02 0.01 0.01 0.02 0.02 0.03 0.03 0.03 0.03 0.03 0.03 0.03 0.03 0.03 0.04 0.05 0.06 0.06 0.07 0.07 0.07 0.07 0.08 0.09 0.07 0.05 0.04 0.05 0.07 0.07 0.08 0.10 0.13
0.01 0.02 0.01 0.01 0.02 0.02 0.02 0.02 0.03 0.02 0.01 0.01 0.01 0.01 0.01 0.02 0.02 0.02 0.02 0.03 0.03 0.03 0.03 0.03 0.04 0.05 0.05 0.06 0.07 0.07 0.06 0.06 0.06 0.09 0.11 0.09 0.07 0.05 0.06 0.07 0.09 0.11 0.14
MSLP
1012.76 1012.65 1012.75 1013.07 1013.54 1014.06 1014.55 1014.94 1015.22 1015.39 1015.52 1015.67 1015.90 1016.24 1016.66 1017.14 1017.60 1017.98 1018.24 1018.39 1018.43 1018.41 1018.39 1018.41 1018.48 1018.61 1018.77 1018.93 1019.06 1019.14 1019.18 1019.20 1019.24 1019.32 1019.45 1019.63 1019.84 1020.06 1020.25 1020.40 1020.50 1020.57 1020.62
1012.92 1012.88 1013.03 1013.37 1013.83 1014.32 1014.77 1015.11 1015.33 1015.47 1015.58 1015.75 1016.01 1016.38 1016.86 1017.37 1017.86 1018.25 1018.50 1018.61 1018.61 1018.55 1018.50 1018.50 1018.58 1018.73 1018.92 1019.12 1019.28 1019.40 1019.46 1019.50 1019.55 1019.63 1019.76 1019.95 1020.17 1020.39 1020.60 1020.76 1020.87 1020.93 1020.97
1012.99 1013.03 1013.25 1013.63 1014.09 1014.57 1014.99 1015.30 1015.51 1015.64 1015.76 1015.94 1016.23 1016.62 1017.11 1017.61 1018.07 1018.42 1018.63 1018.69 1018.65 1018.58 1018.52 1018.54 1018.65 1018.84 1019.08 1019.32 1019.51 1019.64 1019.71 1019.75 1019.78 1019.85 1019.97 1020.15 1020.38 1020.61 1020.83 1021.01 1021.13 1021.21 1021.25
1012.98 1013.12 1013.42 1013.84 1014.34 1014.83 1015.25 1015.56 1015.77 1015.92 1016.06 1016.27 1016.57 1016.96 1017.42 1017.88 1018.28 1018.56 1018.70 1018.71 1018.64 1018.56 1018.53 1018.59 1018.76 1019.00 1019.29 1019.56 1019.76 1019.89 1019.94 1019.94 1019.94 1019.97 1020.08 1020.25 1020.48 1020.73 1020.97 1021.17 1021.32 1021.41 1021.47
1012.92 1013.17 1013.55 1014.04 1014.57 1015.08 1015.52 1015.86 1016.10 1016.28 1016.45 1016.68 1016.98 1017.36 1017.77 1018.16 1018.48 1018.68 1018.76 1018.73 1018.66 1018.60 1018.62 1018.74 1018.96 1019.26 1019.58 1019.85 1020.04 1020.13 1020.12 1020.07 1020.02 1020.01 1020.09 1020.25 1020.48 1020.76 1021.03 1021.27 1021.45 1021.58 1021.67
1012.85 1013.19 1013.65 1014.20 1014.77 1015.32 1015.78 1016.15 1016.42 1016.64 1016.86 1017.10 1017.41 1017.76 1018.12 1018.45 1018.69 1018.83 1018.86 1018.82 1018.76 1018.74 1018.82 1019.01 1019.29 1019.62 1019.94 1020.19 1020.33 1020.34 1020.26 1020.13 1020.02 1019.97 1020.02 1020.18 1020.43 1020.73 1021.04 1021.32 1021.55 1021.72 1021.84
1012.81 1013.21 1013.72 1014.32 1014.92 1015.49 1015.98 1016.38 1016.68 1016.94 1017.19 1017.45 1017.76 1018.09 1018.41 1018.69 1018.89 1018.98 1019.00 1018.97 1018.95 1019.00 1019.14 1019.38 1019.70 1020.04 1020.32 1020.51 1020.57 1020.49 1020.32 1020.12 1019.94 1019.86 1019.90 1020.07 1020.35 1020.68 1021.03 1021.36 1021.62 1021.83 1021.99
1012.80 1013.24 1013.78 1014.39 1015.01 1015.59 1016.08 1016.49 1016.82 1017.11 1017.38 1017.66 1017.97 1018.29 1018.60 1018.85 1019.03 1019.12 1019.16 1019.17 1019.21 1019.32 1019.51 1019.79 1020.11 1020.42 1020.65 1020.75 1020.71 1020.54 1020.29 1020.02 1019.80 1019.71 1019.76 1019.95 1020.26 1020.64 1021.02 1021.38 1021.68 1021.91 1022.10
1012.87 1013.30 1013.83 1014.43 1015.03 1015.59 1016.08 1016.49 1016.82 1017.12 1017.41 1017.71 1018.02 1018.34 1018.64 1018.90 1019.08 1019.21 1019.28 1019.35 1019.45 1019.61 1019.84 1020.12 1020.42 1020.67 1020.82 1020.83 1020.70 1020.45 1020.14 1019.84 1019.62 1019.54 1019.62 1019.85 1020.19 1020.60 1021.01 1021.38 1021.69 1021.93 1022.13
1013.01 1013.41 1013.90 1014.46 1015.02 1015.55 1016.01 1016.39 1016.72 1017.02 1017.31 1017.62 1017.94 1018.26 1018.57 1018.84 1019.05 1019.21 1019.34 1019.45 1019.60 1019.79 1020.03 1020.30 1020.55 1020.73 1020.80 1020.73 1020.53 1020.23 1019.90 1019.61 1019.42 1019.38 1019.51 1019.78 1020.15 1020.57 1020.99 1021.35 1021.65 1021.88 1022.07
1013.26 1013.59 1014.03 1014.53 1015.03 1015.51 1015.93 1016.28 1016.60 1016.88 1017.17 1017.47 1017.79 1018.11 1018.43 1018.71 1018.94 1019.13 1019.30 1019.45 1019.62 1019.82 1020.05 1020.27 1020.47 1020.58 1020.58 1020.45 1020.22 1019.92 1019.62 1019.37 1019.24 1019.27 1019.45 1019.75 1020.14 1020.55 1020.94 1021.27 1021.54 1021.74 1021.90
1013.61 1013.88 1014.25 1014.68 1015.12 1015.54 1015.91 1016.24 1016.52 1016.79 1017.06 1017.34 1017.65 1017.96 1018.27 1018.55 1018.79 1019.00 1019.18 1019.34 1019.51 1019.69 1019.88 1020.06 1020.19 1020.25 1020.21 1020.07 1019.84 1019.58 1019.34 1019.17 1019.11 1019.20 1019.42 1019.75 1020.13 1020.51 1020.85 1021.13 1021.34 1021.50 1021.63
1014.07 1014.27 1014.58 1014.94 1015.32 1015.69 1016.03 1016.32 1016.57 1016.81 1017.05 1017.31 1017.59 1017.88 1018.16 1018.42 1018.65 1018.85 1019.02 1019.17 1019.31 1019.46 1019.61 1019.73 1019.82 1019.84 1019.78 1019.65 1019.47 1019.28 1019.11 1019.02 1019.04 1019.18 1019.42 1019.74 1020.08 1020.41 1020.69 1020.90 1021.05 1021.16 1021.27
1014.61 1014.76 1015.01 1015.32 1015.65 1015.98 1016.28 1016.54 1016.76 1016.97 1017.18 1017.40 1017.64 1017.88 1018.13 1018.36 1018.56 1018.73 1018.87 1018.99 1019.10 1019.20 1019.30 1019.38 1019.44 1019.44 1019.40 1019.31 1019.18 1019.06 1018.97 1018.95 1019.01 1019.17 1019.39 1019.67 1019.95 1020.21 1020.41 1020.56 1020.66 1020.75 1020.84
1015.20 1015.31 1015.51 1015.77 1016.07 1016.36 1016.63 1016.87 1017.07 1017.24 1017.41 1017.59 1017.78 1017.98 1018.18 1018.37 1018.54 1018.67 1018.78 1018.87 1018.94 1019.01 1019.07 1019.12 1019.15 1019.16 1019.14 1019.08 1019.01 1018.95 1018.90 1018.91 1018.98 1019.11 1019.29 1019.49 1019.69 1019.87 1020.01 1020.11 1020.19 1020.26 1020.37
1015.77 1015.86 1016.03 1016.26 1016.53 1016.79 1017.03 1017.24 1017.41 1017.55 1017.68 1017.82 1017.96 1018.12 1018.28 1018.44 1018.58 1018.69 1018.78 1018.84 1018.89 1018.94 1018.97 1019.01 1019.04 1019.05 1019.05 1019.02 1018.98 1018.93 1018.89 1018.88 1018.90 1018.96 1019.06 1019.17 1019.28 1019.39 1019.47 1019.55 1019.63 1019.73 1019.87
1016.30 1016.38 1016.52 1016.73 1016.96 1017.19 1017.40 1017.57 1017.71 1017.82 1017.91 1018.01 1018.12 1018.25 1018.39 1018.53 1018.66 1018.77 1018.86 1018.92 1018.97 1019.01 1019.04 1019.08 1019.10 1019.12 1019.12 1019.09 1019.04 1018.97 1018.89 1018.81 1018.75 1018.71 1018.69 1018.70 1018.73 1018.78 1018.85 1018.93 1019.04 1019.18 1019.38
1016.74 1016.82 1016.96 1017.14 1017.33 1017.53 1017.69 1017.82 1017.92 1017.99 1018.05 1018.12 1018.21 1018.33 1018.47 1018.61 1018.76 1018.89 1019.00 1019.09 1019.16 1019.21 1019.25 1019.28 1019.31 1019.32 1019.30 1019.25 1019.16 1019.03 1018.87 1018.69 1018.51 1018.36 1018.23 1018.15 1018.12 1018.13 1018.20 1018.31 1018.46 1018.66 1018.90
1017.09 1017.19 1017.32 1017.48 1017.64 1017.78 1017.90 1017.98 1018.03 1018.07 1018.10 1018.15 1018.23 1018.35 1018.51 1018.69 1018.87 1019.04 1019.19 1019.32 1019.42 1019.49 1019.54 1019.58 1019.60 1019.59 1019.54 1019.45 1019.29 1019.08 1018.82 1018.54 1018.25 1017.98 1017.76 1017.61 1017.53 1017.54 1017.62 1017.76 1017.95 1018.19 1018.47
1017.39 1017.52 1017.65 1017.78 1017.89 1017.99 1018.05 1018.08 1018.09 1018.08 1018.09 1018.13 1018.22 1018.36 1018.55 1018.76 1018.99 1019.21 1019.41 1019.57 1019.70 1019.80 1019.86 1019.90 1019.91 1019.88 1019.80 1019.65 1019.42 1019.13 1018.78 1018.40 1018.02 1017.67 1017.38 1017.19 1017.10 1017.10 1017.20 1017.37 1017.59 1017.84 1018.11
1017.67 1017.83 1017.96 1018.07 1018.15 1018.20 1018.21 1018.19 1018.15 1018.11 1018.11 1018.15 1018.25 1018.41 1018.62 1018.88 1019.14 1019.40 1019.63 1019.82 1019.98 1020.09 1020.16 1020.20 1020.19 1020.14 1020.02 1019.83 1019.56 1019.21 1018.80 1018.36 1017.91 1017.52 1017.21 1017.00 1016.91 1016.93 1017.04 1017.21 1017.42 1017.63 1017.84
1017.95 1018.15 1018.30 1018.40 1018.45 1018.46 1018.42 1018.36 1018.30 1018.24 1018.23 1018.27 1018.38 1018.56 1018.79 1019.07 1019.35 1019.62 1019.86 1020.06 1020.21 1020.32 1020.39 1020.42 1020.41 1020.35 1020.22 1020.02 1019.72 1019.35 1018.92 1018.45 1018.00 1017.60 1017.29 1017.10 1017.02 1017.06 1017.16 1017.31 1017.47 1017.60 1017.70
1018.25 1018.50 1018.68 1018.78 1018.81 1018.79 1018.73 1018.65 1018.57 1018.51 1018.50 1018.55 1018.67 1018.85 1019.09 1019.35 1019.63 1019.88 1020.10 1020.27 1020.40 1020.49 1020.55 1020.58 1020.57 1020.51 1020.39 1020.20 1019.92 1019.57 1019.16 1018.71 1018.29 1017.92 1017.65 1017.49 1017.43 1017.47 1017.56 1017.66 1017.73 1017.75 1017.71
1018.56 1018.87 1019.07 1019.18 1019.21 1019.19 1019.13 1019.05 1018.98 1018.94 1018.94 1019.00 1019.12 1019.29 1019.50 1019.73 1019.95 1020.16 1020.32 1020.44 1020.53 1020.59 1020.63 1020.66 1020.66 1020.63 1020.54 1020.39 1020.16 1019.85 1019.49 1019.11 1018.74 1018.43 1018.20 1018.08 1018.05 1018.09 1018.15 1018.19 1018.17 1018.07 1017.88
1018.86 1019.21 1019.44 1019.57 1019.61 1019.61 1019.57 1019.52 1019.47 1019.46 1019.48 1019.55 1019.66 1019.81 1019.98 1020.15 1020.30 1020.43 1020.51 1020.57 1020.61 1020.63 1020.66 1020.69 1020.71 1020.72 1020.68 1020.58 1020.41 1020.17 1019.87 1019.55 1019.25 1019.00 1018.82 1018.74 1018.74 1018.78 1018.82 1018.82 1018.72 1018.52 1018.22
1019.13 1019.50 1019.75 1019.89 1019.97 1019.99 1019.99 1019.98 1019.98 1020.01 1020.06 1020.14 1020.24 1020.36 1020.47 1020.56 1020.63 1020.66 1020.66 1020.65 1020.63 1020.62 1020.64 1020.68 1020.73 1020.77 1020.79 1020.75 1020.64 1020.46 1020.22 1019.96 1019.71 1019.51 1019.38 1019.34 1019.37 1019.43 1019.48 1019.46 1019.33 1019.08 1018.72
Thickness
5804 5799 5789 5787 5787 5786 5784 5783 5780 5778 5776 5774 5772 5770 5768 5766 5765 5763 5762 5761 5760 5759 5758 5757 5755 5754 5752 5751 5749 5748 5747 5745 5744 5742 5741 5739 5738 5737 5735 5734 5735 5734 5729
5804 5796 5786 5784 5783 5782 5781 5779 5778 5775 5773 5771 5769 5767 5765 5763 5762 5761 5760 5759 5758 5757 5756 5755 5754 5752 5751 5749 5748 5746 5744 5743 5742 5740 5739 5738 5736 5734 5733 5733 5733 5732 5728
5800 5792 5784 5781 5780 5779 5777 5776 5774 5772 5770 5768 5766 5764 5762 5761 5759 5758 5757 5756 5755 5754 5753 5752 5751 5750 5748 5747 5745 5744 5742 5741 5740 5739 5739 5740 5735 5732 5731 5730 5729 5727 5725
5795 5789 5784 5778 5777 5775 5774 5772 5771 5769 5767 5765 5763 5761 5759 5758 5757 5755 5754 5753 5752 5751 5750 5749 5748 5747 5746 5744 5743 5741 5740 5738 5737 5738 5742 5741 5736 5730 5729 5728 5726 5725 5723
5790 5786 5779 5774 5773 5772 5770 5768 5767 5765 5763 5762 5760 5758 5756 5755 5754 5753 5751 5750 5749 5748 5747 5746 5745 5744 5743 5741 5740 5739 5738 5736 5736 5738 5741 5739 5735 5729 5727 5726 5724 5723 5722
5785 5781 5773 5769 5768 5767 5766 5764 5762 5761 5759 5758 5756 5754 5752 5751 5750 5749 5748 5747 5746 5745 5744 5743 5742 5740 5739 5738 5738 5737 5735 5735 5735 5740 5738 5737 5734 5728 5726 5724 5723 5721 5720
5780 5776 5769 5764 5762 5761 5760 5759 5757 5756 5755 5753 5752 5750 5749 5747 5746 5746 5745 5744 5743 5742 5741 5740 5738 5737 5736 5735 5735 5734 5733 5733 5738 5739 5736 5735 5732 5726 5724 5723 5721 5719 5718
5774 5771 5763 5757 5755 5754 5753 5753 5752 5750 5749 5748 5747 5746 5745 5743 5742 5742 5741 5740 5740 5739 5738 5737 5735 5734 5733 5732 5732 5731 5731 5731 5734 5736 5734 5733 5728 5725 5723 5721 5720 5718 5717
5768 5765 5759 5754 5750 5748 5747 5746 5746 5744 5743 5742 5741 5740 5740 5739 5738 5738 5737 5737 5736 5736 5735 5734 5732 5731 5730 5730 5729 5729 5729 5729 5733 5733 5733 5731 5726 5722 5721 5720 5718 5717 5715
5761 5758 5754 5751 5748 5745 5743 5740 5739 5738 5737 5736 5736 5736 5735 5734 5734 5734 5734 5733 5733 5732 5731 5731 5730 5729 5728 5727 5726 5726 5726 5727 5733 5733 5731 5728 5724 5721 5719 5718 5716 5715 5714
5752 5751 5749 5746 5743 5742 5740 5736 5734 5732 5731 5731 5731 5731 5731 5733 5733 5732 5732 5730 5730 5729 5728 5728 5727 5726 5726 5725 5724 5724 5725 5730 5734 5732 5730 5726 5722 5719 5718 5716 5715 5713 5712
5743 5744 5743 5741 5739 5737 5735 5733 5731 5729 5727 5728 5730 5730 5730 5731 5731 5732 5728 5727 5727 5726 5726 5725 5725 5724 5725 5728 5726 5723 5728 5730 5732 5730 5729 5724 5721 5718 5716 5715 5713 5712 5711
5737 5736 5736 5735 5733 5732 5730 5730 5728 5727 5725 5726 5726 5726 5726 5726 5727 5728 5727 5725 5725 5725 5727 5725 5725 5727 5728 5729 5729 5729 5729 5730 5730 5730 5727 5722 5719 5717 5716 5714 5712 5711 5709
5730 5728 5728 5726 5725 5725 5725 5724 5723 5724 5723 5723 5722 5722 5723 5723 5724 5725 5723 5725 5725 5726 5725 5726 5726 5726 5726 5725 5726 5727 5728 5727 5727 5726 5724 5720 5717 5716 5715 5713 5711 5710 5708
5724 5722 5721 5720 5718 5717 5717 5717 5717 5717 5718 5718 5718 5718 5718 5720 5721 5721 5721 5720 5721 5722 5722 5722 5723 5722 5722 5722 5723 5723 5723 5724 5723 5723 5722 5718 5716 5714 5713 5712 5710 5709 5707
5717 5715 5715 5714 5713 5712 5712 5711 5711 5711 5711 5714 5714 5715 5715 5716 5716 5717 5716 5716 5717 5717 5719 5719 5719 5718 5718 5719 5719 5719 5719 5720 5719 5718 5719 5717 5714 5713 5711 5710 5709 5708 5706
5711 5709 5708 5708 5707 5706 5706 5707 5707 5707 5707 5708 5709 5709 5709 5711 5712 5712 5713 5713 5713 5713 5713 5714 5715 5715 5715 5715 5715 5715 5714 5714 5715 5714 5714 5715 5714 5712 5710 5709 5708 5706 5704
5706 5704 5703 5704 5701 5700 5700 5700 5702 5702 5702 5702 5703 5704 5704 5705 5706 5707 5709 5709 5709 5710 5710 5711 5712 5712 5712 5712 5711 5711 5712 5711 5710 5710 5710 5710 5710 5711 5709 5707 5706 5704 5703
5699 5697 5696 5695 5694 5695 5695 5695 5696 5696 5696 5697 5698 5698 5699 5700 5701 5702 5703 5703 5704 5706 5707 5707 5709 5708 5707 5707 5707 5706 5707 5707 5707 5707 5707 5706 5706 5706 5706 5704 5703 5702 5700
5692 5691 5689 5688 5687 5689 5691 5692 5692 5691 5691 5691 5692 5693 5694 5695 5696 5697 5697 5697 5699 5701 5701 5701 5701 5701 5701 5701 5702 5703 5703 5703 5703 5702 5702 5702 5701 5701 5701 5700 5699 5698 5697
5686 5684 5683 5682 5681 5684 5686 5687 5687 5686 5686 5686 5686 5686 5688 5689 5690 5691 5693 5692 5693 5695 5694 5695 5696 5696 5696 5696 5695 5695 5698 5699 5698 5697 5697 5697 5697 5696 5696 5695 5694 5694 5693
5680 5678 5678 5676 5677 5679 5679 5679 5680 5680 5681 5681 5680 5680 5682 5682 5683 5685 5685 5687 5687 5688 5688 5688 5689 5690 5692 5692 5690 5689 5689 5691 5692 5694 5693 5691 5691 5691 5691 5690 5689 5688 5688
5675 5673 5672 5671 5671 5673 5674 5676 5675 5676 5676 5676 5674 5673 5674 5675 5675 5676 5678 5679 5680 5682 5683 5682 5682 5683 5684 5685 5685 5683 5682 5684 5687 5688 5686 5686 5685 5685 5684 5683 5683 5683 5682
5669 5668 5666 5665 5666 5666 5668 5670 5670 5669 5667 5665 5666 5666 5666 5667 5668 5669 5670 5671 5673 5676 5676 5677 5677 5677 5677 5679 5680 5681 5680 5681 5677 5677 5679 5679 5678 5677 5676 5676 5677 5677 5677
5665 5663 5661 5660 5659 5660 5661 5662 5662 5661 5660 5659 5660 5659 5659 5660 5660 5661 5663 5664 5666 5667 5668 5668 5669 5670 5673 5674 5674 5674 5674 5675 5675 5671 5670 5671 5670 5669 5669 5669 5669 5669 5669
5659 5657 5655 5653 5652 5653 5653 5653 5653 5652 5651 5651 5652 5653 5654 5654 5654 5653 5654 5656 5657 5658 5659 5661 5662 5664 5665 5667 5667 5668 5668 5668 5669 5668 5665 5663 5662 5661 5661 5661 5660 5660 5660